Weather in Tarashany

Ukraine / Chernovtci District     48°07′06″N   26°00′48″E
temp.,
°C
wind,
m/s
gust,
m/s
humid.,
%
clouds,
%
prec.,
mm/h
press.,
hPa
HPBL,
m
12 august, fri
fri1200:00+15w22750 0.0 102026
03:00+13wnw33845 0.0 102037
06:00+13wnw368264 0.0 1020136
09:00+18nw576573 0.0 1019419
12:00+20nw6867100 0.2 1019542
15:00+20nw4777100 0.6 1018551
18:00+19n368889 3.8 1017207
21:00+17nw349567 4.2 101874
13 august, sat
sat1300:00+16nw23958 0.1 101739
03:00+15wnw339646 0.1 101655
06:00+14wnw359796 0.0 1015104
09:00+16wnw3894100 0.1 1015300
12:00+19nw578499 0.0 1014524
15:00+24nnw556294 0.0 10121061
18:00+24n3465100 0.8 1010884
21:00+19wnw4890100 7.3 1010144
14 august, sun
sun1400:00+17wnw3995100 1.4 1010192
03:00+17wnw41096100 3.5 1009256
06:00+16nw41098100 1.1 1009327
09:00+18nw6993100 1.4 1009457
12:00+20nw6782100 0.0 1010648
15:00+24nnw5566100 0.1 10091039
18:00+24nne456329 0.0 10081081
21:00+17s3695100 8.1 1008137
15 august, mon
mon1500:00+17ssw0091100 0.7 100811
03:00+16w1190100 0.7 100811
06:00+16wnw1190100 0.0 100711
09:00+19wnw2281100 0.0 1007161
12:00+24nw2260100 0.0 1007599
15:00+26n1151100 0.0 10061080
18:00+26nne115141 0.0 10071196
21:00+18sw228191 1.4 100724
16 august, tue
tue1600:00+18sw2283100 0.5 100816
03:00+16wsw22815 0.5 100711
06:00+16wsw11835 0.0 100811
09:00+21sw116814 0.0 1008159
12:00+25w125264 0.0 1008511
15:00+29ne12398 0.0 10071308
18:00+26nne225648 0.4 1008278
21:00+18ene119112 2.4 101014